Tracking 27422 objects as of 30-May-2023
HD Live streaming from Space Station
objects crossing your sky now

GRBALPHA

Track GRBALPHA now!
10-day predictions
GRBALPHA is classified as:


NORAD ID: 47941
Int'l Code: 2021-022K
Perigee: 523.2 km
Apogee: 551.5 km
Inclination: 97.5 °
Period: 95.2 minutes
Semi major axis: 6908 km
RCS: Unknown
Launch date: March 22, 2021
Source: (TBD)
Launch site: TYURATAM MISSILE AND SPACE COMPLEX (TTMTR)

Uplink (MHz):
Downlink (MHz): 435.310
Beacon (MHz):
Mode: 1k2 FSK 9k6 GMSK
Call sign:
Status: Unknown

Your satellite tracking list
Your tracking list is empty




NASA's NSSDC Master Catalog

Two Line Element Set (TLE):
1 47941U 21022K   23150.56213566  .00006145  00000-0  36019-3 0  9995
2 47941  97.5000  47.9356 0020480  41.7871 318.4919 15.11964775120345
Source of the keplerian elements: AFSPC